Time,TemperatureF,DewpointF,PressureIn,WindDirection,WindDirectionDegrees,WindSpeedMPH,WindSpeedGustMPH,Humidity,HourlyPrecipIn,Conditions,Clouds,dailyrainin,SoftwareType,DateUTC
2013-10-30 00:03:00,72.0,64.0,29.81,North,360,0.0,2.0,76,0.00,,,0.00,,2013-10-30 05:03:00,
2013-10-30 00:13:00,72.0,64.0,29.81,North,360,0.0,2.0,76,0.00,,,0.00,,2013-10-30 05:13:00,
2013-10-30 00:22:00,71.0,63.0,29.82,North,360,0.0,3.0,77,0.00,,,0.00,,2013-10-30 05:22:00,
2013-10-30 00:34:00,71.0,63.0,29.82,North,360,0.0,3.0,77,0.00,,,0.00,,2013-10-30 05:34:00,
2013-10-30 00:43:00,71.0,63.0,29.82,North,360,0.0,3.0,77,0.00,,,0.00,,2013-10-30 05:43:00,
2013-10-30 00:53:00,71.0,64.0,29.81,North,360,0.0,4.0,78,0.00,,,0.00,,2013-10-30 05:53:00,
2013-10-30 01:02:00,71.0,64.0,29.81,North,360,0.0,4.0,78,0.00,,,0.00,,2013-10-30 06:02:00,
2013-10-30 01:13:00,71.0,64.0,29.81,North,360,0.0,4.0,78,0.00,,,0.00,,2013-10-30 06:13:00,
2013-10-30 01:22:00,71.0,63.0,29.80,North,360,0.0,5.0,77,0.00,,,0.00,,2013-10-30 06:22:00,
2013-10-30 01:42:00,70.0,63.0,29.80,North,360,0.0,2.0,78,0.00,,,0.00,,2013-10-30 06:42:00,
2013-10-30 01:52:00,70.0,63.0,29.79,North,360,0.0,4.0,78,0.00,,,0.00,,2013-10-30 06:52:00,
2013-10-30 02:02:00,70.0,63.0,29.79,North,360,0.0,4.0,78,0.00,,,0.00,,2013-10-30 07:02:00,
2013-10-30 02:11:00,70.0,63.0,29.79,North,360,0.0,4.0,78,0.00,,,0.00,,2013-10-30 07:11:00,
2013-10-30 02:21:00,70.0,64.0,29.79,North,360,0.0,6.0,80,0.00,,,0.00,,2013-10-30 07:21:00,
2013-10-30 02:42:00,69.0,63.0,29.80,North,360,0.0,2.0,80,0.00,,,0.00,,2013-10-30 07:42:00,
2013-10-30 02:52:00,69.0,63.0,29.80,North,360,0.0,2.0,80,0.00,,,0.00,,2013-10-30 07:52:00,
2013-10-30 03:12:00,69.0,63.0,29.80,NE,45,0.0,0.0,81,0.00,,,0.00,,2013-10-30 08:12:00,
2013-10-30 03:22:00,69.0,63.0,29.80,NE,45,0.0,0.0,81,0.00,,,0.00,,2013-10-30 08:22:00,
2013-10-30 03:42:00,69.0,64.0,29.80,North,360,0.0,0.0,83,0.00,,,0.00,,2013-10-30 08:42:00,
2013-10-30 03:52:00,68.0,63.0,29.80,NW,315,0.0,0.0,84,0.00,,,0.00,,2013-10-30 08:52:00,
2013-10-30 04:11:00,68.0,64.0,29.81,North,360,0.0,0.0,86,0.00,,,0.00,,2013-10-30 09:11:00,
2013-10-30 04:22:00,68.0,64.0,29.81,North,360,0.0,0.0,86,0.00,,,0.00,,2013-10-30 09:22:00,
2013-10-30 04:43:00,68.0,65.0,29.80,North,360,0.0,0.0,89,0.00,,,0.00,,2013-10-30 09:43:00,
2013-10-30 04:52:00,68.0,65.0,29.79,NW,315,0.0,0.0,89,0.00,,,0.00,,2013-10-30 09:52:00,
2013-10-30 04:54:00,68.0,65.0,29.80,NW,315,0.0,0.0,89,0.00,,,0.00,,2013-10-30 09:54:00,
2013-10-30 05:13:00,68.0,65.0,29.80,North,360,0.0,0.0,89,0.00,,,0.00,,2013-10-30 10:13:00,
2013-10-30 05:23:00,68.0,65.0,29.79,NW,315,0.0,0.0,89,0.00,,,0.00,,2013-10-30 10:23:00,
2013-10-30 05:33:00,68.0,65.0,29.79,NW,315,0.0,0.0,89,0.00,,,0.00,,2013-10-30 10:33:00,
2013-10-30 05:43:00,68.0,65.0,29.79,NW,315,0.0,0.0,89,0.00,,,0.00,,2013-10-30 10:43:00,
2013-10-30 06:12:00,68.0,65.0,29.79,NW,315,0.0,0.0,91,0.00,,,0.00,,2013-10-30 11:12:00,
2013-10-30 06:22:00,68.0,66.0,29.80,NE,45,0.0,4.0,92,0.00,,,0.00,,2013-10-30 11:22:00,
2013-10-30 06:42:00,68.0,66.0,29.79,North,360,0.0,4.0,92,0.00,,,0.00,,2013-10-30 11:42:00,
2013-10-30 06:52:00,69.0,66.0,29.79,NE,45,0.0,1.0,91,0.00,,,0.00,,2013-10-30 11:52:00,
2013-10-30 07:12:00,69.0,66.0,29.79,North,360,0.0,4.0,91,0.00,,,0.00,,2013-10-30 12:12:00,
2013-10-30 07:22:00,69.0,66.0,29.78,North,360,0.0,2.0,91,0.00,,,0.00,,2013-10-30 12:22:00,
2013-10-30 07:32:00,69.0,66.0,29.78,North,360,0.0,2.0,91,0.00,,,0.00,,2013-10-30 12:32:00,
2013-10-30 07:42:00,69.0,66.0,29.78,North,360,0.0,2.0,91,0.00,,,0.00,,2013-10-30 12:42:00,
2013-10-30 07:52:00,69.0,66.0,29.78,North,360,0.0,0.0,91,0.00,,,0.00,,2013-10-30 12:52:00,
2013-10-30 08:11:00,69.0,67.0,29.78,NW,315,0.0,0.0,92,0.00,,,0.00,,2013-10-30 13:11:00,
2013-10-30 08:22:00,68.0,66.0,29.79,NW,315,0.0,0.0,92,0.00,,,0.00,,2013-10-30 13:22:00,
2013-10-30 08:42:00,68.0,66.0,29.78,North,360,0.0,2.0,93,0.00,,,0.00,,2013-10-30 13:42:00,
2013-10-30 08:52:00,68.0,66.0,29.78,North,360,0.0,2.0,93,0.00,,,0.00,,2013-10-30 13:52:00,
2013-10-30 09:11:00,69.0,67.0,29.78,North,360,0.0,0.0,94,0.00,,,0.00,,2013-10-30 14:11:00,
2013-10-30 09:21:00,69.0,68.0,29.78,North,360,0.0,0.0,96,0.01,,,0.01,,2013-10-30 14:21:00,
2013-10-30 09:42:00,69.0,68.0,29.79,North,360,0.0,1.0,97,0.01,,,0.01,,2013-10-30 14:42:00,
2013-10-30 09:52:00,69.0,69.0,29.80,North,360,0.0,1.0,100,0.01,,,0.01,,2013-10-30 14:52:00,
2013-10-30 10:11:00,69.0,69.0,29.80,North,360,0.0,2.0,99,0.01,,,0.01,,2013-10-30 15:11:00,
2013-10-30 10:22:00,69.0,69.0,29.80,North,360,0.0,2.0,99,0.01,,,0.01,,2013-10-30 15:22:00,
2013-10-30 10:43:00,70.0,70.0,29.80,North,360,0.0,1.0,99,0.00,,,0.01,,2013-10-30 15:43:00,
2013-10-30 10:54:00,70.0,69.0,29.80,North,360,1.0,6.0,96,0.00,,,0.01,,2013-10-30 15:54:00,
2013-10-30 11:12:00,70.0,69.0,29.80,North,360,0.0,7.0,96,0.00,,,0.01,,2013-10-30 16:12:00,
2013-10-30 11:23:00,70.0,68.0,29.80,NE,45,2.0,11.0,94,0.01,,,0.02,,2013-10-30 16:23:00,
2013-10-30 11:42:00,71.0,68.0,29.78,North,360,4.0,11.0,90,0.01,,,0.02,,2013-10-30 16:42:00,
2013-10-30 11:53:00,71.0,68.0,29.78,North,360,4.0,11.0,90,0.01,,,0.02,,2013-10-30 16:53:00,
2013-10-30 12:12:00,71.0,67.0,29.79,North,360,4.0,8.0,88,0.01,,,0.02,,2013-10-30 17:12:00,
2013-10-30 12:22:00,71.0,66.0,29.80,East,90,4.0,8.0,85,0.00,,,0.02,,2013-10-30 17:22:00,
2013-10-30 12:33:00,71.0,66.0,29.80,East,90,4.0,8.0,85,0.00,,,0.02,,2013-10-30 17:33:00,
2013-10-30 12:42:00,71.0,66.0,29.80,East,90,4.0,8.0,85,0.00,,,0.02,,2013-10-30 17:42:00,
2013-10-30 12:52:00,72.0,65.0,29.79,North,360,2.0,8.0,78,0.00,,,0.02,,2013-10-30 17:52:00,
2013-10-30 13:12:00,73.0,63.0,29.77,North,360,4.0,15.0,72,0.00,,,0.02,,2013-10-30 18:12:00,
2013-10-30 13:22:00,73.0,62.0,29.77,North,360,2.0,14.0,68,0.00,,,0.02,,2013-10-30 18:22:00,
2013-10-30 13:42:00,73.0,60.0,29.76,North,360,0.0,12.0,64,0.00,,,0.02,,2013-10-30 18:42:00,
2013-10-30 13:52:00,73.0,57.0,29.74,North,360,5.0,17.0,58,0.00,,,0.02,,2013-10-30 18:52:00,
2013-10-30 14:42:00,72.0,54.0,29.72,North,360,5.0,15.0,53,0.00,,,0.02,,2013-10-30 19:42:00,
2013-10-30 15:12:00,74.0,55.0,29.70,North,360,0.0,8.0,51,0.00,,,0.02,,2013-10-30 20:12:00,
2013-10-30 15:42:00,71.0,53.0,29.70,North,360,2.0,9.0,53,0.00,,,0.02,,2013-10-30 20:42:00,
2013-10-30 15:52:00,71.0,54.0,29.70,North,360,0.0,8.0,54,0.00,,,0.02,,2013-10-30 20:52:00,
2013-10-30 16:12:00,70.0,53.0,29.71,NE,45,4.0,6.0,54,0.00,,,0.02,,2013-10-30 21:12:00,
2013-10-30 16:21:00,70.0,53.0,29.71,NE,45,4.0,6.0,54,0.00,,,0.02,,2013-10-30 21:21:00,
2013-10-30 16:43:00,67.0,55.0,29.72,NW,315,0.0,0.0,66,0.01,,,0.04,,2013-10-30 21:43:00,
2013-10-30 16:53:00,67.0,55.0,29.72,NW,315,0.0,0.0,66,0.01,,,0.04,,2013-10-30 21:53:00,
2013-10-30 17:13:00,66.0,59.0,29.70,West,270,0.0,7.0,77,0.05,,,0.07,,2013-10-30 22:13:00,
2013-10-30 17:23:00,66.0,60.0,29.69,North,360,0.0,1.0,82,0.08,,,0.12,,2013-10-30 22:23:00,
2013-10-30 17:43:00,66.0,61.0,29.69,NW,315,0.0,1.0,84,0.08,,,0.12,,2013-10-30 22:43:00,
2013-10-30 17:54:00,66.0,62.0,29.69,North,360,0.0,8.0,88,0.09,,,0.14,,2013-10-30 22:54:00,
2013-10-30 18:12:00,65.0,61.0,29.69,North,360,0.0,4.0,87,0.06,,,0.14,,2013-10-30 23:12:00,
2013-10-30 18:23:00,65.0,62.0,29.68,North,360,2.0,4.0,89,0.02,,,0.14,,2013-10-30 23:23:00,
2013-10-30 18:33:00,65.0,62.0,29.68,North,360,2.0,4.0,89,0.02,,,0.14,,2013-10-30 23:33:00,
2013-10-30 18:42:00,65.0,62.0,29.68,North,360,2.0,4.0,89,0.02,,,0.14,,2013-10-30 23:42:00,
2013-10-30 18:53:00,65.0,62.0,29.68,North,360,4.0,7.0,89,0.00,,,0.14,,2013-10-30 23:53:00,
2013-10-30 19:11:00,65.0,61.0,29.68,North,360,0.0,10.0,86,0.00,,,0.14,,2013-10-31 00:11:00,
2013-10-30 19:22:00,65.0,61.0,29.68,North,360,0.0,10.0,86,0.00,,,0.14,,2013-10-31 00:22:00,
2013-10-30 19:32:00,65.0,61.0,29.68,North,360,0.0,10.0,86,0.00,,,0.14,,2013-10-31 00:32:00,
2013-10-30 19:42:00,65.0,61.0,29.68,North,360,0.0,10.0,86,0.00,,,0.14,,2013-10-31 00:42:00,
2013-10-30 19:52:00,65.0,60.0,29.68,North,360,0.0,9.0,83,0.00,,,0.14,,2013-10-31 00:52:00,
2013-10-30 20:12:00,65.0,60.0,29.68,NW,315,0.0,3.0,83,0.00,,,0.14,,2013-10-31 01:12:00,
2013-10-30 20:22:00,65.0,60.0,29.68,NW,315,0.0,3.0,83,0.00,,,0.14,,2013-10-31 01:22:00,
2013-10-30 20:42:00,65.0,59.0,29.69,North,360,0.0,2.0,82,0.00,,,0.14,,2013-10-31 01:42:00,
2013-10-30 20:53:00,65.0,59.0,29.68,NE,45,0.0,2.0,82,0.00,,,0.14,,2013-10-31 01:53:00,
2013-10-30 21:12:00,65.0,60.0,29.68,North,360,0.0,1.0,84,0.00,,,0.14,,2013-10-31 02:12:00,
2013-10-30 21:22:00,65.0,60.0,29.67,West,270,0.0,1.0,84,0.00,,,0.14,,2013-10-31 02:22:00,
2013-10-30 22:11:00,65.0,61.0,29.67,North,360,0.0,1.0,86,0.00,,,0.14,,2013-10-31 03:11:00,
2013-10-30 22:22:00,65.0,61.0,29.67,NW,315,0.0,0.0,86,0.01,,,0.15,,2013-10-31 03:22:00,
2013-10-30 22:44:00,65.0,61.0,29.66,West,270,0.0,0.0,87,0.01,,,0.15,,2013-10-31 03:44:00,
2013-10-30 22:55:00,65.0,61.0,29.66,West,270,0.0,0.0,87,0.01,,,0.15,,2013-10-31 03:55:00,
2013-10-30 23:04:00,65.0,61.0,29.66,West,270,0.0,0.0,87,0.01,,,0.15,,2013-10-31 04:04:00,
2013-10-30 23:14:00,65.0,61.0,29.66,West,270,0.0,0.0,87,0.01,,,0.15,,2013-10-31 04:14:00,
2013-10-30 23:24:00,64.0,62.0,29.63,North,360,0.0,1.0,92,0.01,,,0.17,,2013-10-31 04:24:00,
2013-10-30 23:43:00,65.0,63.0,29.62,NW,315,0.0,0.0,93,0.01,,,0.17,,2013-10-31 04:43:00,
2013-10-30 23:54:00,65.0,63.0,29.62,NW,315,0.0,1.0,94,0.02,,,0.18,,2013-10-31 04:54:00,